owner,sensor,date,latitude,longitude,air_pressure(mBar),qcFlag 
COMPS,ioos:station:USF.COMPS:C13:1,2017-03-01T01:05:00Z,26.0630,-83.0730,1019.2,1111122 
COMPS,ioos:station:USF.COMPS:C13:1,2017-03-01T01:35:00Z,26.0630,-83.0730,1019.68,1111122 
COMPS,ioos:station:USF.COMPS:C13:1,2017-03-01T02:05:00Z,26.0630,-83.0730,1019.74,1111122 
COMPS,ioos:station:USF.COMPS:C13:1,2017-03-01T02:35:00Z,26.0630,-83.0730,1019.77,1111122 
COMPS,ioos:station:USF.COMPS:C13:1,2017-03-01T03:05:00Z,26.0630,-83.0730,1019.77,1111122 
COMPS,ioos:station:USF.COMPS:C13:1,2017-03-01T03:35:00Z,26.0630,-83.0730,1019.7,1111122 
COMPS,ioos:station:USF.COMPS:C13:1,2017-03-01T04:05:00Z,26.0630,-83.0730,1019.44,1111122 
COMPS,ioos:station:USF.COMPS:C13:1,2017-03-01T04:35:00Z,26.0630,-83.0730,1019.31,1111122 
COMPS,ioos:station:USF.COMPS:C13:1,2017-03-01T05:05:00Z,26.0630,-83.0730,1019.25,1111122 
COMPS,ioos:station:USF.COMPS:C13:1,2017-03-01T05:35:00Z,26.0630,-83.0730,1019.1,1111122 
COMPS,ioos:station:USF.COMPS:C13:1,2017-03-01T06:05:00Z,26.0630,-83.0730,1018.9,1111122 
COMPS,ioos:station:USF.COMPS:C13:1,2017-03-01T06:35:00Z,26.0630,-83.0730,1018.68,1111122 
COMPS,ioos:station:USF.COMPS:C13:1,2017-03-01T07:05:00Z,26.0630,-83.0730,1018.54,1111122 
COMPS,ioos:station:USF.COMPS:C13:1,2017-03-01T07:35:00Z,26.0630,-83.0730,1018.41,1111122 
COMPS,ioos:station:USF.COMPS:C13:1,2017-03-01T08:05:00Z,26.0630,-83.0730,1017.94,1111122 
COMPS,ioos:station:USF.COMPS:C13:1,2017-03-01T08:35:00Z,26.0630,-83.0730,1017.74,1111122 
COMPS,ioos:station:USF.COMPS:C13:1,2017-03-01T09:05:00Z,26.0630,-83.0730,1017.61,1111122 
COMPS,ioos:station:USF.COMPS:C13:1,2017-03-01T09:35:00Z,26.0630,-83.0730,1017.55,1111122 
COMPS,ioos:station:USF.COMPS:C13:1,2017-03-01T10:05:00Z,26.0630,-83.0730,1017.64,1111122 
COMPS,ioos:station:USF.COMPS:C13:1,2017-03-01T10:35:00Z,26.0630,-83.0730,1017.8,1111122 
COMPS,ioos:station:USF.COMPS:C13:1,2017-03-01T11:05:00Z,26.0630,-83.0730,1017.9,1111122 
COMPS,ioos:station:USF.COMPS:C13:1,2017-03-01T11:35:00Z,26.0630,-83.0730,1017.99,1111122 
COMPS,ioos:station:USF.COMPS:C13:1,2017-03-01T12:05:00Z,26.0630,-83.0730,1018.1,1111122 
COMPS,ioos:station:USF.COMPS:C13:1,2017-03-01T12:35:00Z,26.0630,-83.0730,1018.31,1111122 
COMPS,ioos:station:USF.COMPS:C13:1,2017-03-01T13:05:00Z,26.0630,-83.0730,1018.42,1111122 
COMPS,ioos:station:USF.COMPS:C13:1,2017-03-01T13:35:00Z,26.0630,-83.0730,1018.55,1111122 
COMPS,ioos:station:USF.COMPS:C13:1,2017-03-01T14:05:00Z,26.0630,-83.0730,1018.68,1111122 
COMPS,ioos:station:USF.COMPS:C13:1,2017-03-01T14:35:00Z,26.0630,-83.0730,1018.76,1111122 
COMPS,ioos:station:USF.COMPS:C13:1,2017-03-01T15:05:00Z,26.0630,-83.0730,1018.78,1111122 
COMPS,ioos:station:USF.COMPS:C13:1,2017-03-01T15:35:00Z,26.0630,-83.0730,1018.94,1111122 
COMPS,ioos:station:USF.COMPS:C13:1,2017-03-01T16:05:00Z,26.0630,-83.0730,1019.07,1111122 
COMPS,ioos:station:USF.COMPS:C13:1,2017-03-01T16:35:00Z,26.0630,-83.0730,1018.87,1111122 
COMPS,ioos:station:USF.COMPS:C13:1,2017-03-01T17:05:00Z,26.0630,-83.0730,1018.56,1111122 
COMPS,ioos:station:USF.COMPS:C13:1,2017-03-01T17:35:00Z,26.0630,-83.0730,1018.28,1111122 
COMPS,ioos:station:USF.COMPS:C13:1,2017-03-01T21:05:00Z,26.0630,-83.0730,1015.87,1111122 
COMPS,ioos:station:USF.COMPS:C13:1,2017-03-01T21:35:00Z,26.0630,-83.0730,1015.63,1111122 
COMPS,ioos:station:USF.COMPS:C13:1,2017-03-01T22:05:00Z,26.0630,-83.0730,1015.66,1111122 
COMPS,ioos:station:USF.COMPS:C13:1,2017-03-01T22:35:00Z,26.0630,-83.0730,1015.68,1111122 
COMPS,ioos:station:USF.COMPS:C13:1,2017-03-01T23:05:00Z,26.0630,-83.0730,1015.64,1111122 
COMPS,ioos:station:USF.COMPS:C13:1,2017-03-01T23:35:00Z,26.0630,-83.0730,1015.84,1111122 
COMPS,ioos:station:USF.COMPS:C13:1,2017-03-02T00:05:00Z,26.0630,-83.0730,1015.86,1111122 
COMPS,ioos:station:USF.COMPS:C13:1,2017-03-02T00:35:00Z,26.0630,-83.0730,1015.96,1111122 
COMPS,ioos:station:USF.COMPS:C13:1,2017-03-02T01:05:00Z,26.0630,-83.0730,1015.84,1111122 
COMPS,ioos:station:USF.COMPS:C13:1,2017-03-02T01:35:00Z,26.0630,-83.0730,1016.12,1111122 
COMPS,ioos:station:USF.COMPS:C13:1,2017-03-02T02:05:00Z,26.0630,-83.0730,1016.39,1111122 
COMPS,ioos:station:USF.COMPS:C13:1,2017-03-02T02:35:00Z,26.0630,-83.0730,1016.52,1111122 
COMPS,ioos:station:USF.COMPS:C13:1,2017-03-02T03:05:00Z,26.0630,-83.0730,1016.56,1111122 
COMPS,ioos:station:USF.COMPS:C13:1,2017-03-02T03:35:00Z,26.0630,-83.0730,1016.75,1111122 
COMPS,ioos:station:USF.COMPS:C13:1,2017-03-02T04:05:00Z,26.0630,-83.0730,1016.57,1111122 
COMPS,ioos:station:USF.COMPS:C13:1,2017-03-02T04:35:00Z,26.0630,-83.0730,1016.54,1111122 
COMPS,ioos:station:USF.COMPS:C13:1,2017-03-02T05:05:00Z,26.0630,-83.0730,1016.56,1111122 
COMPS,ioos:station:USF.COMPS:C13:1,2017-03-02T05:35:00Z,26.0630,-83.0730,1016.41,1111122 
COMPS,ioos:station:USF.COMPS:C13:1,2017-03-02T06:05:00Z,26.0630,-83.0730,1016.14,1111122 
COMPS,ioos:station:USF.COMPS:C13:1,2017-03-02T06:35:00Z,26.0630,-83.0730,1015.84,1111122 
COMPS,ioos:station:USF.COMPS:C13:1,2017-03-02T07:05:00Z,26.0630,-83.0730,1015.83,1111122 
COMPS,ioos:station:USF.COMPS:C13:1,2017-03-02T07:35:00Z,26.0630,-83.0730,1015.48,1111122 
COMPS,ioos:station:USF.COMPS:C13:1,2017-03-02T08:05:00Z,26.0630,-83.0730,1015.29,1111122 
COMPS,ioos:station:USF.COMPS:C13:1,2017-03-02T08:35:00Z,26.0630,-83.0730,1015.39,1111122 
COMPS,ioos:station:USF.COMPS:C13:1,2017-03-02T09:05:00Z,26.0630,-83.0730,1015.17,1111122 
COMPS,ioos:station:USF.COMPS:C13:1,2017-03-02T09:35:00Z,26.0630,-83.0730,1015.19,1111122 
COMPS,ioos:station:USF.COMPS:C13:1,2017-03-02T10:05:00Z,26.0630,-83.0730,1015.17,1111122 
COMPS,ioos:station:USF.COMPS:C13:1,2017-03-02T10:35:00Z,26.0630,-83.0730,1015.4,1111122 
COMPS,ioos:station:USF.COMPS:C13:1,2017-03-02T11:05:00Z,26.0630,-83.0730,1015.49,1111122 
COMPS,ioos:station:USF.COMPS:C13:1,2017-03-02T11:35:00Z,26.0630,-83.0730,1015.75,1111122 
COMPS,ioos:station:USF.COMPS:C13:1,2017-03-02T12:05:00Z,26.0630,-83.0730,1015.92,1111122 
COMPS,ioos:station:USF.COMPS:C13:1,2017-03-02T12:35:00Z,26.0630,-83.0730,1016.19,1111122 
COMPS,ioos:station:USF.COMPS:C13:1,2017-03-02T13:05:00Z,26.0630,-83.0730,1016.41,1111122 
COMPS,ioos:station:USF.COMPS:C13:1,2017-03-02T13:35:00Z,26.0630,-83.0730,1016.59,1111122 
COMPS,ioos:station:USF.COMPS:C13:1,2017-03-02T14:05:00Z,26.0630,-83.0730,1016.96,1111122 
COMPS,ioos:station:USF.COMPS:C13:1,2017-03-02T14:35:00Z,26.0630,-83.0730,1017.09,1111122 
COMPS,ioos:station:USF.COMPS:C13:1,2017-03-02T15:05:00Z,26.0630,-83.0730,1017.44,1111122 
COMPS,ioos:station:USF.COMPS:C13:1,2017-03-02T15:35:00Z,26.0630,-83.0730,1017.43,1111122 
COMPS,ioos:station:USF.COMPS:C13:1,2017-03-02T16:05:00Z,26.0630,-83.0730,1017.52,1111122 
COMPS,ioos:station:USF.COMPS:C13:1,2017-03-02T16:35:00Z,26.0630,-83.0730,1017.77,1111122 
COMPS,ioos:station:USF.COMPS:C13:1,2017-03-02T17:05:00Z,26.0630,-83.0730,1017.77,1111122 
COMPS,ioos:station:USF.COMPS:C13:1,2017-03-02T17:35:00Z,26.0630,-83.0730,1017.53,1111122 
COMPS,ioos:station:USF.COMPS:C13:1,2017-03-02T18:05:00Z,26.0630,-83.0730,1017.44,1111122 
COMPS,ioos:station:USF.COMPS:C13:1,2017-03-02T18:35:00Z,26.0630,-83.0730,1017.22,1111122 
COMPS,ioos:station:USF.COMPS:C13:1,2017-03-02T19:05:00Z,26.0630,-83.0730,1016.92,1111122 
COMPS,ioos:station:USF.COMPS:C13:1,2017-03-02T19:35:00Z,26.0630,-83.0730,1016.74,1111122 
COMPS,ioos:station:USF.COMPS:C13:1,2017-03-02T20:05:00Z,26.0630,-83.0730,1016.61,1111122 
COMPS,ioos:station:USF.COMPS:C13:1,2017-03-02T20:35:00Z,26.0630,-83.0730,1016.61,1111122 
COMPS,ioos:station:USF.COMPS:C13:1,2017-03-02T21:05:00Z,26.0630,-83.0730,1016.62,1111122 
COMPS,ioos:station:USF.COMPS:C13:1,2017-03-02T21:35:00Z,26.0630,-83.0730,1016.78,1111122 
COMPS,ioos:station:USF.COMPS:C13:1,2017-03-02T22:05:00Z,26.0630,-83.0730,1016.97,1111122 
COMPS,ioos:station:USF.COMPS:C13:1,2017-03-02T22:35:00Z,26.0630,-83.0730,1017.2,1111122 
COMPS,ioos:station:USF.COMPS:C13:1,2017-03-02T23:05:00Z,26.0630,-83.0730,1017.42,1111122 
COMPS,ioos:station:USF.COMPS:C13:1,2017-03-02T23:35:00Z,26.0630,-83.0730,1017.74,1111122 
COMPS,ioos:station:USF.COMPS:C13:1,2017-03-03T00:05:00Z,26.0630,-83.0730,1017.98,1111122 
COMPS,ioos:station:USF.COMPS:C13:1,2017-03-03T00:35:00Z,26.0630,-83.0730,1018.37,1111122 
COMPS,ioos:station:USF.COMPS:C13:1,2017-03-03T01:05:00Z,26.0630,-83.0730,1018.61,1111122 
COMPS,ioos:station:USF.COMPS:C13:1,2017-03-03T01:35:00Z,26.0630,-83.0730,1018.99,1111122 
COMPS,ioos:station:USF.COMPS:C13:1,2017-03-03T02:05:00Z,26.0630,-83.0730,1019.23,1111122 
COMPS,ioos:station:USF.COMPS:C13:1,2017-03-03T02:35:00Z,26.0630,-83.0730,1019.5,1111122 
COMPS,ioos:station:USF.COMPS:C13:1,2017-03-03T03:05:00Z,26.0630,-83.0730,1019.51,1111122 
COMPS,ioos:station:USF.COMPS:C13:1,2017-03-03T03:35:00Z,26.0630,-83.0730,1019.56,1111122 
COMPS,ioos:station:USF.COMPS:C13:1,2017-03-03T04:05:00Z,26.0630,-83.0730,1019.53,1111122 
COMPS,ioos:station:USF.COMPS:C13:1,2017-03-03T04:35:00Z,26.0630,-83.0730,1019.47,1111122 
COMPS,ioos:station:USF.COMPS:C13:1,2017-03-03T05:05:00Z,26.0630,-83.0730,1019.51,1111122 
COMPS,ioos:station:USF.COMPS:C13:1,2017-03-03T05:35:00Z,26.0630,-83.0730,1019.38,1111122 
COMPS,ioos:station:USF.COMPS:C13:1,2017-03-03T06:05:00Z,26.0630,-83.0730,1019.46,1111122 
COMPS,ioos:station:USF.COMPS:C13:1,2017-03-03T06:35:00Z,26.0630,-83.0730,1019.39,1111122 
COMPS,ioos:station:USF.COMPS:C13:1,2017-03-03T07:05:00Z,26.0630,-83.0730,1019.39,1111122 
COMPS,ioos:station:USF.COMPS:C13:1,2017-03-03T07:35:00Z,26.0630,-83.0730,1019.31,1111122 
COMPS,ioos:station:USF.COMPS:C13:1,2017-03-03T08:05:00Z,26.0630,-83.0730,1019.38,1111122 
COMPS,ioos:station:USF.COMPS:C13:1,2017-03-03T08:35:00Z,26.0630,-83.0730,1019.39,1111122 
COMPS,ioos:station:USF.COMPS:C13:1,2017-03-03T09:05:00Z,26.0630,-83.0730,1019.47,1111122 
COMPS,ioos:station:USF.COMPS:C13:1,2017-03-03T09:35:00Z,26.0630,-83.0730,1019.72,1111122 
COMPS,ioos:station:USF.COMPS:C13:1,2017-03-03T10:05:00Z,26.0630,-83.0730,1020.03,1111122 
COMPS,ioos:station:USF.COMPS:C13:1,2017-03-03T10:35:00Z,26.0630,-83.0730,1020.47,1111122 
COMPS,ioos:station:USF.COMPS:C13:1,2017-03-03T11:05:00Z,26.0630,-83.0730,1020.9,1111122 
COMPS,ioos:station:USF.COMPS:C13:1,2017-03-03T11:35:00Z,26.0630,-83.0730,1021.3,1111122 
COMPS,ioos:station:USF.COMPS:C13:1,2017-03-03T12:05:00Z,26.0630,-83.0730,1022.05,1111122 
COMPS,ioos:station:USF.COMPS:C13:1,2017-03-03T12:35:00Z,26.0630,-83.0730,1022.51,1111122 
COMPS,ioos:station:USF.COMPS:C13:1,2017-03-03T13:05:00Z,26.0630,-83.0730,1022.98,1111122 
COMPS,ioos:station:USF.COMPS:C13:1,2017-03-03T13:35:00Z,26.0630,-83.0730,1023.48,1111122 
COMPS,ioos:station:USF.COMPS:C13:1,2017-03-03T14:05:00Z,26.0630,-83.0730,1023.94,1111122 
COMPS,ioos:station:USF.COMPS:C13:1,2017-03-03T14:35:00Z,26.0630,-83.0730,1024.4,1111122 
COMPS,ioos:station:USF.COMPS:C13:1,2017-03-03T15:05:00Z,26.0630,-83.0730,1024.59,1111122 
COMPS,ioos:station:USF.COMPS:C13:1,2017-03-03T15:35:00Z,26.0630,-83.0730,1024.74,1111122 
COMPS,ioos:station:USF.COMPS:C13:1,2017-03-03T16:05:00Z,26.0630,-83.0730,1024.72,1111122 
COMPS,ioos:station:USF.COMPS:C13:1,2017-03-03T16:35:00Z,26.0630,-83.0730,1024.48,1111122 
COMPS,ioos:station:USF.COMPS:C13:1,2017-03-03T17:05:00Z,26.0630,-83.0730,1024.29,1111122 
COMPS,ioos:station:USF.COMPS:C13:1,2017-03-03T17:35:00Z,26.0630,-83.0730,1024.09,1111122 
COMPS,ioos:station:USF.COMPS:C13:1,2017-03-03T18:05:00Z,26.0630,-83.0730,1023.7,1111122 
COMPS,ioos:station:USF.COMPS:C13:1,2017-03-03T18:35:00Z,26.0630,-83.0730,1023.27,1111122 
COMPS,ioos:station:USF.COMPS:C13:1,2017-03-03T19:05:00Z,26.0630,-83.0730,1022.92,1111122 
COMPS,ioos:station:USF.COMPS:C13:1,2017-03-03T19:35:00Z,26.0630,-83.0730,1022.72,1111122 
COMPS,ioos:station:USF.COMPS:C13:1,2017-03-03T20:05:00Z,26.0630,-83.0730,1022.55,1111122 
COMPS,ioos:station:USF.COMPS:C13:1,2017-03-03T20:35:00Z,26.0630,-83.0730,1022.52,1111122 
COMPS,ioos:station:USF.COMPS:C13:1,2017-03-03T21:05:00Z,26.0630,-83.0730,1022.49,1111122 
COMPS,ioos:station:USF.COMPS:C13:1,2017-03-03T21:35:00Z,26.0630,-83.0730,1022.43,1111122 
COMPS,ioos:station:USF.COMPS:C13:1,2017-03-03T22:05:00Z,26.0630,-83.0730,1022.4,1111122 
COMPS,ioos:station:USF.COMPS:C13:1,2017-03-03T22:35:00Z,26.0630,-83.0730,1022.48,1111122 
COMPS,ioos:station:USF.COMPS:C13:1,2017-03-03T23:05:00Z,26.0630,-83.0730,1022.66,1111122 
COMPS,ioos:station:USF.COMPS:C13:1,2017-03-03T23:35:00Z,26.0630,-83.0730,1022.91,1111122 
COMPS,ioos:station:USF.COMPS:C13:1,2017-03-04T00:05:00Z,26.0630,-83.0730,1023.49,1111122 
COMPS,ioos:station:USF.COMPS:C13:1,2017-03-04T00:35:00Z,26.0630,-83.0730,1023.52,1111122 
COMPS,ioos:station:USF.COMPS:C13:1,2017-03-04T01:05:00Z,26.0630,-83.0730,1023.73,1111122 
COMPS,ioos:station:USF.COMPS:C13:1,2017-03-04T01:35:00Z,26.0630,-83.0730,1024.23,1111122 
COMPS,ioos:station:USF.COMPS:C13:1,2017-03-04T03:05:00Z,26.0630,-83.0730,1024.86,1111122 
COMPS,ioos:station:USF.COMPS:C13:1,2017-03-04T03:35:00Z,26.0630,-83.0730,1025.25,1111122 
COMPS,ioos:station:USF.COMPS:C13:1,2017-03-04T04:05:00Z,26.0630,-83.0730,1025.56,1111122 
COMPS,ioos:station:USF.COMPS:C13:1,2017-03-04T04:35:00Z,26.0630,-83.0730,1025.66,1111122 
COMPS,ioos:station:USF.COMPS:C13:1,2017-03-04T05:05:00Z,26.0630,-83.0730,1025.54,1111122 
COMPS,ioos:station:USF.COMPS:C13:1,2017-03-04T05:35:00Z,26.0630,-83.0730,1025.58,1111122 
COMPS,ioos:station:USF.COMPS:C13:1,2017-03-04T06:05:00Z,26.0630,-83.0730,1025.67,1111122 
COMPS,ioos:station:USF.COMPS:C13:1,2017-03-04T06:35:00Z,26.0630,-83.0730,1025.5,1111122 
COMPS,ioos:station:USF.COMPS:C13:1,2017-03-04T07:05:00Z,26.0630,-83.0730,1025.3,1111122 
COMPS,ioos:station:USF.COMPS:C13:1,2017-03-04T07:35:00Z,26.0630,-83.0730,1024.97,1111122 
COMPS,ioos:station:USF.COMPS:C13:1,2017-03-04T08:05:00Z,26.0630,-83.0730,1024.9,1111122 
COMPS,ioos:station:USF.COMPS:C13:1,2017-03-04T08:35:00Z,26.0630,-83.0730,1024.89,1111122 
COMPS,ioos:station:USF.COMPS:C13:1,2017-03-04T09:05:00Z,26.0630,-83.0730,1024.91,1111122 
COMPS,ioos:station:USF.COMPS:C13:1,2017-03-04T09:35:00Z,26.0630,-83.0730,1024.89,1111122 
COMPS,ioos:station:USF.COMPS:C13:1,2017-03-04T10:05:00Z,26.0630,-83.0730,1025.0,1111122 
COMPS,ioos:station:USF.COMPS:C13:1,2017-03-04T10:35:00Z,26.0630,-83.0730,1025.2,1111122 
COMPS,ioos:station:USF.COMPS:C13:1,2017-03-04T11:05:00Z,26.0630,-83.0730,1025.29,1111122 
COMPS,ioos:station:USF.COMPS:C13:1,2017-03-04T11:35:00Z,26.0630,-83.0730,1025.49,1111122 
COMPS,ioos:station:USF.COMPS:C13:1,2017-03-04T12:05:00Z,26.0630,-83.0730,1025.73,1111122 
COMPS,ioos:station:USF.COMPS:C13:1,2017-03-04T12:35:00Z,26.0630,-83.0730,1025.87,1111122 
COMPS,ioos:station:USF.COMPS:C13:1,2017-03-04T14:05:00Z,26.0630,-83.0730,1026.81,1111122 
COMPS,ioos:station:USF.COMPS:C13:1,2017-03-04T14:35:00Z,26.0630,-83.0730,1027.0,1111122 
COMPS,ioos:station:USF.COMPS:C13:1,2017-03-04T15:05:00Z,26.0630,-83.0730,1027.2,1111122 
COMPS,ioos:station:USF.COMPS:C13:1,2017-03-04T15:35:00Z,26.0630,-83.0730,1027.35,1111122 
COMPS,ioos:station:USF.COMPS:C13:1,2017-03-04T16:05:00Z,26.0630,-83.0730,1027.2,1111122 
COMPS,ioos:station:USF.COMPS:C13:1,2017-03-04T16:35:00Z,26.0630,-83.0730,1026.89,1111122 
COMPS,ioos:station:USF.COMPS:C13:1,2017-03-04T17:05:00Z,26.0630,-83.0730,1026.41,1111122 
COMPS,ioos:station:USF.COMPS:C13:1,2017-03-04T17:35:00Z,26.0630,-83.0730,1025.94,1111122 
COMPS,ioos:station:USF.COMPS:C13:1,2017-03-04T18:05:00Z,26.0630,-83.0730,1025.82,1111122 
COMPS,ioos:station:USF.COMPS:C13:1,2017-03-04T18:35:00Z,26.0630,-83.0730,1025.23,1111122 
COMPS,ioos:station:USF.COMPS:C13:1,2017-03-04T19:05:00Z,26.0630,-83.0730,1024.82,1111122 
COMPS,ioos:station:USF.COMPS:C13:1,2017-03-04T19:35:00Z,26.0630,-83.0730,1024.47,1111122 
COMPS,ioos:station:USF.COMPS:C13:1,2017-03-04T20:05:00Z,26.0630,-83.0730,1024.35,1111122 
COMPS,ioos:station:USF.COMPS:C13:1,2017-03-04T20:35:00Z,26.0630,-83.0730,1023.79,1111122 
COMPS,ioos:station:USF.COMPS:C13:1,2017-03-04T21:05:00Z,26.0630,-83.0730,1023.61,1111122 
COMPS,ioos:station:USF.COMPS:C13:1,2017-03-04T21:35:00Z,26.0630,-83.0730,1023.37,1111122 
COMPS,ioos:station:USF.COMPS:C13:1,2017-03-04T22:05:00Z,26.0630,-83.0730,1023.37,1111122 
COMPS,ioos:station:USF.COMPS:C13:1,2017-03-04T22:35:00Z,26.0630,-83.0730,1023.41,1111122 
COMPS,ioos:station:USF.COMPS:C13:1,2017-03-04T23:05:00Z,26.0630,-83.0730,1023.38,1111122 
COMPS,ioos:station:USF.COMPS:C13:1,2017-03-04T23:35:00Z,26.0630,-83.0730,1023.62,1111122 
COMPS,ioos:station:USF.COMPS:C13:1,2017-03-05T06:05:00Z,26.0630,-83.0730,1024.63,1111122 
COMPS,ioos:station:USF.COMPS:C13:1,2017-03-05T06:35:00Z,26.0630,-83.0730,1024.7,1111122 
COMPS,ioos:station:USF.COMPS:C13:1,2017-03-05T08:05:00Z,26.0630,-83.0730,1023.83,1111122 
COMPS,ioos:station:USF.COMPS:C13:1,2017-03-05T08:35:00Z,26.0630,-83.0730,1023.52,1111122 
COMPS,ioos:station:USF.COMPS:C13:1,2017-03-05T09:05:00Z,26.0630,-83.0730,1023.52,1111122 
COMPS,ioos:station:USF.COMPS:C13:1,2017-03-05T09:35:00Z,26.0630,-83.0730,1023.49,1111122 
COMPS,ioos:station:USF.COMPS:C13:1,2017-03-05T10:05:00Z,26.0630,-83.0730,1023.45,1111122 
COMPS,ioos:station:USF.COMPS:C13:1,2017-03-05T10:35:00Z,26.0630,-83.0730,1023.64,1111122 
COMPS,ioos:station:USF.COMPS:C13:1,2017-03-05T11:05:00Z,26.0630,-83.0730,1023.77,1111122 
COMPS,ioos:station:USF.COMPS:C13:1,2017-03-05T11:35:00Z,26.0630,-83.0730,1023.85,1111122 
COMPS,ioos:station:USF.COMPS:C13:1,2017-03-05T12:05:00Z,26.0630,-83.0730,1023.89,1111122 
COMPS,ioos:station:USF.COMPS:C13:1,2017-03-05T12:35:00Z,26.0630,-83.0730,1024.17,1111122 
COMPS,ioos:station:USF.COMPS:C13:1,2017-03-05T13:05:00Z,26.0630,-83.0730,1024.4,1111122 
COMPS,ioos:station:USF.COMPS:C13:1,2017-03-05T13:35:00Z,26.0630,-83.0730,1024.44,1111122 
COMPS,ioos:station:USF.COMPS:C13:1,2017-03-05T14:05:00Z,26.0630,-83.0730,1024.44,1111122 
COMPS,ioos:station:USF.COMPS:C13:1,2017-03-05T14:35:00Z,26.0630,-83.0730,1025.03,1111122 
COMPS,ioos:station:USF.COMPS:C13:1,2017-03-05T21:05:00Z,26.0630,-83.0730,1022.42,1111122 
COMPS,ioos:station:USF.COMPS:C13:1,2017-03-05T21:35:00Z,26.0630,-83.0730,1022.06,1111122 
COMPS,ioos:station:USF.COMPS:C13:1,2017-03-06T00:05:00Z,26.0630,-83.0730,1022.83,1111122 
COMPS,ioos:station:USF.COMPS:C13:1,2017-03-06T00:35:00Z,26.0630,-83.0730,1023.23,1111122 
COMPS,ioos:station:USF.COMPS:C13:1,2017-03-06T02:05:00Z,26.0630,-83.0730,1023.8,1111122 
COMPS,ioos:station:USF.COMPS:C13:1,2017-03-06T02:35:00Z,26.0630,-83.0730,1024.31,1111122 
COMPS,ioos:station:USF.COMPS:C13:1,2017-03-06T03:05:00Z,26.0630,-83.0730,1024.06,1111122 
COMPS,ioos:station:USF.COMPS:C13:1,2017-03-06T03:35:00Z,26.0630,-83.0730,1024.35,1111122 
COMPS,ioos:station:USF.COMPS:C13:1,2017-03-06T04:05:00Z,26.0630,-83.0730,1024.24,1111122 
COMPS,ioos:station:USF.COMPS:C13:1,2017-03-06T04:35:00Z,26.0630,-83.0730,1024.1,1111122 
COMPS,ioos:station:USF.COMPS:C13:1,2017-03-06T05:05:00Z,26.0630,-83.0730,1023.77,1111122 
COMPS,ioos:station:USF.COMPS:C13:1,2017-03-06T05:35:00Z,26.0630,-83.0730,1023.54,1111122 
COMPS,ioos:station:USF.COMPS:C13:1,2017-03-06T06:05:00Z,26.0630,-83.0730,1023.4,1111122 
COMPS,ioos:station:USF.COMPS:C13:1,2017-03-06T06:35:00Z,26.0630,-83.0730,1023.2,1111122 
COMPS,ioos:station:USF.COMPS:C13:1,2017-03-06T07:05:00Z,26.0630,-83.0730,1022.93,1111122 
COMPS,ioos:station:USF.COMPS:C13:1,2017-03-06T07:35:00Z,26.0630,-83.0730,1022.49,1111122 
COMPS,ioos:station:USF.COMPS:C13:1,2017-03-06T08:05:00Z,26.0630,-83.0730,1022.58,1111122 
COMPS,ioos:station:USF.COMPS:C13:1,2017-03-06T08:35:00Z,26.0630,-83.0730,1022.05,1111122 
COMPS,ioos:station:USF.COMPS:C13:1,2017-03-06T09:05:00Z,26.0630,-83.0730,1022.12,1111122 
COMPS,ioos:station:USF.COMPS:C13:1,2017-03-06T09:35:00Z,26.0630,-83.0730,1022.32,1111122 
COMPS,ioos:station:USF.COMPS:C13:1,2017-03-06T10:05:00Z,26.0630,-83.0730,1022.36,1111122 
COMPS,ioos:station:USF.COMPS:C13:1,2017-03-06T10:35:00Z,26.0630,-83.0730,1022.63,1111122 
COMPS,ioos:station:USF.COMPS:C13:1,2017-03-06T11:05:00Z,26.0630,-83.0730,1022.63,1111122 
COMPS,ioos:station:USF.COMPS:C13:1,2017-03-06T11:35:00Z,26.0630,-83.0730,1022.65,1111122 
COMPS,ioos:station:USF.COMPS:C13:1,2017-03-06T12:05:00Z,26.0630,-83.0730,1022.94,1111122 
COMPS,ioos:station:USF.COMPS:C13:1,2017-03-06T12:35:00Z,26.0630,-83.0730,1023.37,1111122 
COMPS,ioos:station:USF.COMPS:C13:1,2017-03-06T13:05:00Z,26.0630,-83.0730,1023.72,1111122 
COMPS,ioos:station:USF.COMPS:C13:1,2017-03-06T13:35:00Z,26.0630,-83.0730,1023.87,1111122 
COMPS,ioos:station:USF.COMPS:C13:1,2017-03-06T15:05:00Z,26.0630,-83.0730,1024.26,1111122 
COMPS,ioos:station:USF.COMPS:C13:1,2017-03-06T15:35:00Z,26.0630,-83.0730,1024.3,1111122 
COMPS,ioos:station:USF.COMPS:C13:1,2017-03-06T17:05:00Z,26.0630,-83.0730,1023.49,1111122 
COMPS,ioos:station:USF.COMPS:C13:1,2017-03-06T17:35:00Z,26.0630,-83.0730,1023.45,1111122 
COMPS,ioos:station:USF.COMPS:C13:1,2017-03-06T18:05:00Z,26.0630,-83.0730,1023.13,1111122 
COMPS,ioos:station:USF.COMPS:C13:1,2017-03-06T18:35:00Z,26.0630,-83.0730,1022.74,1111122 
COMPS,ioos:station:USF.COMPS:C13:1,2017-03-06T19:05:00Z,26.0630,-83.0730,1022.42,1111122 
COMPS,ioos:station:USF.COMPS:C13:1,2017-03-06T19:35:00Z,26.0630,-83.0730,1022.09,1111122 
COMPS,ioos:station:USF.COMPS:C13:1,2017-03-06T20:05:00Z,26.0630,-83.0730,1021.92,1111122 
COMPS,ioos:station:USF.COMPS:C13:1,2017-03-06T20:35:00Z,26.0630,-83.0730,1021.57,1111122 
COMPS,ioos:station:USF.COMPS:C13:1,2017-03-06T22:05:00Z,26.0630,-83.0730,1021.04,1111122 
COMPS,ioos:station:USF.COMPS:C13:1,2017-03-06T22:35:00Z,26.0630,-83.0730,1021.22,1111122 
COMPS,ioos:station:USF.COMPS:C13:1,2017-03-06T23:05:00Z,26.0630,-83.0730,1021.43,1111122 
COMPS,ioos:station:USF.COMPS:C13:1,2017-03-06T23:35:00Z,26.0630,-83.0730,1021.5,1111122 
COMPS,ioos:station:USF.COMPS:C13:1,2017-03-07T00:05:00Z,26.0630,-83.0730,1021.57,1111122 
COMPS,ioos:station:USF.COMPS:C13:1,2017-03-07T00:35:00Z,26.0630,-83.0730,1021.68,1111122 
COMPS,ioos:station:USF.COMPS:C13:1,2017-03-07T01:05:00Z,26.0630,-83.0730,1022.07,1111122 
COMPS,ioos:station:USF.COMPS:C13:1,2017-03-07T01:35:00Z,26.0630,-83.0730,1022.38,1111122 
COMPS,ioos:station:USF.COMPS:C13:1,2017-03-07T02:05:00Z,26.0630,-83.0730,1022.64,1111122 
COMPS,ioos:station:USF.COMPS:C13:1,2017-03-07T02:35:00Z,26.0630,-83.0730,1023.01,1111122 
COMPS,ioos:station:USF.COMPS:C13:1,2017-03-07T03:05:00Z,26.0630,-83.0730,1023.04,1111122 
COMPS,ioos:station:USF.COMPS:C13:1,2017-03-07T03:35:00Z,26.0630,-83.0730,1023.06,1111122 
COMPS,ioos:station:USF.COMPS:C13:1,2017-03-07T04:05:00Z,26.0630,-83.0730,1022.8,1111122 
COMPS,ioos:station:USF.COMPS:C13:1,2017-03-07T04:35:00Z,26.0630,-83.0730,1022.59,1111122 
COMPS,ioos:station:USF.COMPS:C13:1,2017-03-07T05:05:00Z,26.0630,-83.0730,1022.2,1111122 
COMPS,ioos:station:USF.COMPS:C13:1,2017-03-07T05:35:00Z,26.0630,-83.0730,1022.09,1111122 
COMPS,ioos:station:USF.COMPS:C13:1,2017-03-07T06:05:00Z,26.0630,-83.0730,1021.79,1111122 
COMPS,ioos:station:USF.COMPS:C13:1,2017-03-07T06:35:00Z,26.0630,-83.0730,1021.63,1111122 
COMPS,ioos:station:USF.COMPS:C13:1,2017-03-07T07:05:00Z,26.0630,-83.0730,1021.55,1111122 
COMPS,ioos:station:USF.COMPS:C13:1,2017-03-07T07:35:00Z,26.0630,-83.0730,1021.17,1111122 
COMPS,ioos:station:USF.COMPS:C13:1,2017-03-07T08:05:00Z,26.0630,-83.0730,1021.06,1111122 
COMPS,ioos:station:USF.COMPS:C13:1,2017-03-07T08:35:00Z,26.0630,-83.0730,1020.82,1111122 
COMPS,ioos:station:USF.COMPS:C13:1,2017-03-07T09:05:00Z,26.0630,-83.0730,1021.1,1111122 
COMPS,ioos:station:USF.COMPS:C13:1,2017-03-07T09:35:00Z,26.0630,-83.0730,1021.03,1111122 
COMPS,ioos:station:USF.COMPS:C13:1,2017-03-07T10:05:00Z,26.0630,-83.0730,1021.09,1111122 
COMPS,ioos:station:USF.COMPS:C13:1,2017-03-07T10:35:00Z,26.0630,-83.0730,1021.31,1111122 
COMPS,ioos:station:USF.COMPS:C13:1,2017-03-07T11:05:00Z,26.0630,-83.0730,1021.7,1111122 
COMPS,ioos:station:USF.COMPS:C13:1,2017-03-07T11:35:00Z,26.0630,-83.0730,1022.03,1111122 
COMPS,ioos:station:USF.COMPS:C13:1,2017-03-07T12:05:00Z,26.0630,-83.0730,1022.33,1111122 
COMPS,ioos:station:USF.COMPS:C13:1,2017-03-07T12:35:00Z,26.0630,-83.0730,1022.68,1111122 
COMPS,ioos:station:USF.COMPS:C13:1,2017-03-07T13:05:00Z,26.0630,-83.0730,1022.99,1111122 
COMPS,ioos:station:USF.COMPS:C13:1,2017-03-07T13:35:00Z,26.0630,-83.0730,1023.13,1111122 